OBJECT BA, 57326

Orbit data source: Space-Track

You're viewing an Uncataloged Satellite

Recently launched and/or uncataloged satellites may have evolving metadata. Metadata may include but not limited to: Owner, Maufacturer, Bus, Motor, and Mission.

OBJECT BA, 57326 is a satellite in SSO that was launched on Tue, 27 Jun 2023 UTC via a SOYUZ-2-1B launch vehicle from the Vostochny Cosmodrome (VOSTO). Unknown objects in Earth's orbit typically refer to objects detected orbiting the Earth but have not yet been identified or cataloged. These objects could be anything from previously untracked satellites, spent rocket stages, debris from satellite collisions, or even natural meteoroids temporarily captured by Earth's gravity.

Loading next visibility...
Identifier
57326, 2023-091BA
Orbit
SSO
Country
Flag of TBDTBD
Related business
Flag of RUOOO Stratonavtika (RU)
Manufacturer
MKS
Mission
Commercial Communications
Bus & Motor
TINYSAT 2TU, Unknown motor
Mass
0.25 kg wet, 0.25 kg dry
Launch date (UTC)
2023-06-27 (2 years ago)
Launch vehicle
SOYUZ-2-1B
Launch site
Vostochny Cosmodrome (VOSTO)
Object type
Unknown
Shape & HBR
Box, 0.1 m
Radar Cross Section
0.006 m², Small (<0.1 m²)

Expand to show TLE details & history
Last TLE update: 6 hours ago

TLE from 6 hours ago
0 OBJECT BA
1 57326U 23091BA  25304.70690449  .00054702  00000-0  12699-2 0  9998
2 57326  97.5369   9.7746 0008627 157.6586 202.5038 15.42154081127728
Epoch: 2025-10-31T16:57Z
TLE epoch observation values (Epoch: 2025-10-31T16:57:56.547Z)
Latitude
-0.00007°
Longitude
75.04152°
Altitude
448.306 km
Speed
7.64 km/s
True Right ascension
00h 39m 05s
True Declination
0° 00' 00"
Sunlit
Object was in full shadow at epoch
Visualization orbit readout
Latitude
Unknown
Longitude
Unknown
Altitude
Unknown
Speed
Unknown
Apparent Right ascension
Unknown
Apparent Declination
Unknown
Sunlit
N/A
Visualization observer readout
Local Sidereal Time
18:18:15
Azimuth
Unknown
Elevation
Unknown
Doppler factor
Unknown
Orbital elements
Apogee altitude
442.574 km
Perigee altitude
430.816 km
Semi-major axis
6,814.832 km
Eccentricity
0.00086
Inclination
97.5369°
RAAN
9.7746°
Arg. of periapsis
157.6586°
True anomaly
202.466°
Mean anomaly
202.5038°
Eccentric anomaly
202.4849°
Mean motion
3.85798 °/min
Orbital period
93.31 mins
BSTAR
0.0012699
Loading maneuver chart data...
Computing Atmospheric mass density...
Loading historical data...
Loading historical data...
Loading historical data...
Loading historical data...
Loading historical data...
Loading historical data...
Loading historical data...

Documentation

Showing up to 5 results
|